Weather Roundup
Issued by NWS

Home | Current Version | Previous Version | Text Only | Print | Product List | Glossary On
Versions: 1 2 3 4 5 6 7 8 9 10 11 12 13 14 15 16 17 18 19 20 21 22 23 24 25 26 27 28 29 30 31 32 33 34 35 36 37 38 39 40 41 42 43 44 45 46 47 48 49 50
000
NZUS93 KARX 221559
HRRWXR

CURRENT HOURLY OBSERVATIONS ACROSS
MUCH OF THE UPPER MISSISSIPPI VALLEY
NATIONAL WEATHER SERVICE LA CROSSE WI
1100 AM CDT TUE APR 22 2014


...SOUTHEAST MINNESOTA...


CITY           SKY/WX    TMP DP  RH WIND       PRES   REMARKS
ROCHESTER      SUNNY     49  30  48 N15       30.11S
ROCHESTER/MAYO FAIR      46  24  42 NW15G23   30.10F
WINONA         SUNNY     48  28  46 NW13G18   30.10S
AUSTIN         SUNNY     48  30  49 N12G20    30.12S
ALBERT LEA     SUNNY     50  34  53 N12G17    30.13S
DODGE CENTER   SUNNY     48  30  49 N16       30.11F
PRESTON        SUNNY     48  30  50 N16G24    30.09S
OWATONNA       SUNNY     48  30  49 NW13      30.13S
FARIBAULT      SUNNY     52  28  40 N9        30.14S
$$

...ELSEWHERE IN MINNESOTA...


CITY           SKY/WX    TMP DP  RH WIND       PRES   REMARKS
MINNEAPOLIS    MOSUNNY   49  28  44 NW12      30.13F
INTNL FALLS    MOSUNNY   44  26  49 MISG      30.13S
DULUTH         MOSUNNY   43  24  47 N12G20    30.09R
RED WING       SUNNY     52  27  37 NW10G16   30.10F
REDWOOD FALLS  SUNNY     53  34  48 CALM      30.16R
MANKATO        SUNNY     52  32  46 N10       30.15S
WORTHINGTON    SUNNY     54  28  37 N3        30.18S
FAIRMONT       SUNNY     54  30  40 N15       30.16F
$$

...SOUTHWEST WISCONSIN...


CITY           SKY/WX    TMP DP  RH WIND       PRES   REMARKS
LA CROSSE      SUNNY     50  28  42 NW12      30.08S
PRAIRIE DU CHI SUNNY     48  27  44 NW7G16    30.07S
BOSCOBEL       SUNNY     51  26  37 VRB6G20   30.06F
LONE ROCK      NOT AVBL
PLATTEVILLE    SUNNY     49  28  44 NW8       30.05S
FORT MC COY    SUNNY     46  26  46 NW10G16   30.06F
VIROQUA        FAIR      46  29  52 NW13G21   30.05S
WIS DELLS      SUNNY     46  27  48 NW10G20   30.02S
$$

...ELSEWHERE IN WISCONSIN...


CITY           SKY/WX    TMP DP  RH WIND       PRES   REMARKS
MILWAUKEE      MOSUNNY   50  30  46 NW14      29.97S
MADISON        SUNNY     49  28  44 NW15      30.01R
GREEN BAY      PTSUNNY   45  32  60 NW16      29.97S
EAU CLAIRE     NOT AVBL
BLACK RVR FLS  FAIR      47  25  41 NW9G17    30.05F
MEDFORD        MOSUNNY   42  27  55 N12       30.01S
WAUSAU         MOSUNNY   43  24  47 N13       29.99S
WIS RAPIDS     PTSUNNY   45  27  49 N14       30.03S
MARSHFIELD     MOSUNNY   45  29  53 NW16      30.01F
RICE LAKE      SUNNY     44  25  47 NW13G18   30.10S
$$

...NORTHEAST IOWA...


CITY           SKY/WX    TMP DP  RH WIND       PRES   REMARKS
WATERLOO       SUNNY     52  31  44 N14G24    30.11S
DUBUQUE        SUNNY     51  30  44 N15G23    30.05S
DECORAH        SUNNY     48  28  46 N18G26    30.07F
MASON CITY     SUNNY     53  34  48 N17       30.14S
CHARLES CITY   SUNNY     48  36  61 N14G21    30.12S
OELWEIN        SUNNY    N/A N/A N/A NW18G24   30.11S
$$

...ELSEWHERE IN IOWA...


CITY           SKY/WX    TMP DP  RH WIND       PRES   REMARKS
DES MOINES     MOSUNNY   57  30  35 N15       30.15S
IOWA CITY      SUNNY     52  33  48 N15G23    30.10F
FORT DODGE     SUNNY     54  36  50 NE15      30.16S
MARSHALLTOWN   SUNNY     54  32  43 N18       30.12F
CEDAR RAPIDS   SUNNY     51  32  48 N21       30.08F
$$

...NORTHERN ILLINOIS...


CITY           SKY/WX    TMP DP  RH WIND       PRES   REMARKS
CHICAGO-OHARE  MOSUNNY   51  29  42 N13       29.98S
DUPAGE         SUNNY     51  31  46 N13       29.99R
CHICAGO-MIDWAY MOSUNNY   51  31  46 N16       29.98R
MOLINE         SUNNY     54  34  46 NW15      30.06S
ROCKFORD       SUNNY     51  31  46 N16G22    30.03R
STERLING       SUNNY     54  36  50 N14       30.03S
PEORIA         SUNNY     55  33  43 N9        30.04R
$$

NOTE: "FAIR" INDICATES FEW OR NO CLOUDS BELOW 12,000 FEET WITH NO
SIGNIFICANT WEATHER AND/OR OBSTRUCTIONS TO VISIBILITY. WIND
SPEEDS ARE IN MILES-PER-HOUR.



USA.gov is the U.S. government's official web portal to all federal, state and local government web resources and services.